Theta_e
324 324 326 327 324 325 327 325 320 319 326 328 320 321 328 335 344 349 347 349 352 354 353 351 349 350 351 352 351 351 350 351 355 356 353 353 359 362 361 362 363 358 350 346 349 351 350 349 349 353 356 355 355 356 355 353 353 355 355 352 351 351 352
326 326 327 328 325 327 326 319 322 326 326 329 328 323 327 340 348 349 346 348 351 351 350 353 353 354 355 354 351 352 352 351 353 353 352 352 355 357 359 359 358 354 350 348 350 353 351 349 350 353 355 356 356 356 356 355 354 356 356 353 353 353 353
325 329 326 325 327 329 326 322 326 325 317 321 328 322 323 338 350 351 346 346 350 350 352 357 357 356 360 358 353 353 352 351 352 352 352 353 353 355 355 354 353 352 351 351 352 353 352 350 351 354 355 357 357 356 357 355 355 357 357 355 355 355 354
325 332 327 319 324 328 325 325 325 326 324 322 324 321 323 337 349 351 347 346 351 355 356 359 358 357 358 357 354 353 351 351 352 352 353 353 353 354 353 352 352 351 350 350 350 351 352 352 352 354 355 357 358 357 357 356 355 357 359 357 356 356 355
322 325 325 319 323 324 320 322 321 323 326 325 325 323 321 331 344 349 350 349 352 359 361 359 359 358 356 355 354 353 351 351 352 351 352 352 351 351 350 350 351 350 350 351 352 352 351 352 353 353 355 356 357 356 356 355 356 357 359 359 358 357 356
315 320 325 322 326 327 324 324 321 321 323 323 327 326 321 327 337 343 348 349 353 360 359 357 358 357 354 354 354 353 351 351 351 351 350 349 350 349 347 348 350 349 349 350 353 353 351 352 353 352 353 353 353 353 353 352 353 355 356 358 358 357 356
317 321 325 323 325 328 330 329 326 326 327 328 329 325 323 328 334 339 346 348 354 360 357 356 358 355 354 354 353 352 351 350 349 349 348 346 346 346 346 347 348 348 348 349 353 354 351 351 352 352 353 351 350 350 351 351 353 353 353 354 356 358 356
337 333 333 334 330 328 328 327 327 329 325 329 334 331 330 332 332 340 347 348 353 359 358 357 355 353 354 353 352 351 349 349 347 346 346 345 344 344 345 346 348 348 347 349 351 352 351 350 350 350 350 350 350 350 349 350 351 353 353 351 352 355 356
335 333 334 334 331 329 328 326 327 328 326 331 333 331 337 335 329 337 346 347 350 354 356 356 354 354 354 351 350 349 347 347 346 345 345 345 344 344 344 346 348 349 348 348 349 349 350 349 347 347 348 349 351 351 349 348 348 350 352 352 351 351 352
327 327 326 326 327 328 329 327 325 324 328 335 331 329 336 334 330 339 344 345 351 355 356 356 354 355 353 350 349 348 347 346 344 345 345 344 345 345 345 346 348 349 348 348 347 347 347 347 345 346 347 348 350 350 350 349 348 348 349 350 352 350 349
332 330 332 335 332 325 322 323 322 320 325 338 341 336 335 335 338 343 343 345 352 355 356 355 354 355 353 350 349 347 347 346 344 345 345 344 344 344 345 347 347 347 347 347 347 347 346 345 344 344 345 347 350 351 352 352 351 350 350 349 349 349 349
332 331 332 332 327 322 319 318 319 320 322 333 339 331 330 339 344 342 344 350 352 353 356 356 355 355 353 350 349 349 347 346 344 344 344 344 344 344 345 346 346 346 346 346 346 346 346 346 345 344 344 345 347 350 352 355 354 354 353 351 350 350 350
327 327 325 325 322 322 322 319 319 321 321 326 331 330 336 350 349 343 346 351 351 352 356 356 355 355 352 349 349 347 346 345 343 343 344 344 344 344 344 345 345 345 345 344 344 345 346 347 346 346 346 346 345 344 346 350 353 353 352 353 354 354 353
324 327 324 326 323 320 322 323 322 322 323 330 336 337 346 354 350 347 351 353 352 352 353 354 353 351 350 349 347 346 346 345 344 344 344 344 344 344 344 344 344 345 344 343 343 344 345 346 348 349 349 348 346 344 344 347 351 350 348 350 352 354 354
326 330 326 323 321 320 320 324 327 322 324 337 345 343 345 351 352 351 352 353 353 352 350 351 350 348 349 348 347 347 346 344 344 344 343 343 344 343 343 344 344 344 343 342 342 343 345 346 348 349 349 348 347 347 348 350 352 350 349 348 348 349 351
322 328 323 320 323 322 319 324 329 325 323 331 341 344 346 352 352 351 352 354 354 351 349 349 348 348 349 348 347 348 346 344 344 343 342 343 343 343 344 344 344 344 343 342 342 343 345 347 348 348 349 348 348 349 350 351 351 350 349 348 347 349 349
321 327 322 320 324 321 321 329 331 330 332 333 338 342 345 348 350 352 354 354 352 350 349 349 348 348 348 348 347 347 345 345 344 342 342 343 343 343 343 343 344 345 343 342 342 344 345 346 347 347 347 347 346 346 346 347 348 348 347 346 346 347 347
321 329 331 329 324 319 327 341 336 331 336 338 338 341 343 345 348 353 355 352 350 349 348 348 348 347 347 346 345 345 345 345 344 342 342 343 343 343 343 343 343 342 342 342 342 343 343 344 344 344 343 343 342 343 342 342 344 344 344 344 345 345 345
320 332 338 329 322 325 337 342 334 333 336 338 343 346 346 349 350 351 352 350 348 348 347 346 347 346 346 346 345 344 345 344 344 343 341 342 343 342 343 343 340 339 341 341 341 341 341 341 341 340 339 339 339 340 340 340 340 341 341 342 343 343 344
320 325 326 323 326 337 345 338 331 335 339 340 345 347 346 349 350 350 351 349 347 347 346 345 345 344 344 345 344 344 345 344 345 344 342 342 341 338 339 340 338 338 339 339 339 340 338 337 338 337 335 336 337 337 338 338 338 339 340 340 341 342 342
325 324 324 330 332 332 339 341 334 334 338 340 346 346 344 346 347 348 350 348 346 346 345 343 343 342 343 344 343 342 343 344 343 340 338 338 336 334 335 337 337 337 337 336 337 338 336 334 334 333 333 333 334 335 336 336 336 337 338 338 339 340 341
333 333 328 329 325 324 339 352 341 334 337 338 341 345 346 346 345 345 347 348 345 344 344 342 341 342 344 345 344 342 342 342 341 336 333 332 332 333 334 335 335 336 336 335 334 335 335 334 333 332 331 331 332 334 335 335 336 336 336 337 337 338 340
329 333 327 323 321 326 345 356 343 333 334 336 342 348 347 347 345 343 345 346 345 343 342 341 341 343 345 345 343 342 342 339 337 335 333 330 330 331 330 330 333 335 335 334 333 333 333 333 332 329 329 329 331 332 334 335 336 336 336 336 336 337 338
328 332 326 323 325 333 349 359 348 334 333 337 342 342 344 346 344 342 344 344 343 342 342 341 341 344 348 347 343 340 339 335 333 333 332 329 328 329 329 329 332 333 334 334 333 333 332 332 332 330 329 329 329 330 331 333 335 337 336 336 336 337 337
329 327 320 321 329 338 344 346 342 334 331 332 333 336 344 347 342 341 342 342 341 342 341 341 342 345 347 346 342 338 337 336 332 329 328 328 327 327 328 330 332 332 333 333 333 332 332 332 332 332 331 330 330 329 330 331 333 334 335 336 336 336 337
328 328 323 321 328 337 338 337 340 338 331 330 337 344 345 343 341 341 341 340 341 341 340 342 345 345 343 341 340 338 336 336 332 326 325 326 326 326 328 330 331 332 332 332 332 331 331 330 330 331 331 330 330 329 329 329 330 331 333 334 334 332 332
329 329 323 318 324 337 338 335 339 344 342 343 346 345 341 339 342 342 340 341 341 340 342 344 344 342 339 338 339 336 333 332 329 324 323 323 323 326 329 329 331 332 332 333 332 331 329 326 326 328 330 330 329 328 327 327 328 329 330 330 330 329 328
331 328 325 328 337 347 345 342 344 346 347 347 343 340 340 341 341 341 342 343 341 340 343 343 340 340 339 339 338 334 330 330 326 323 322 321 321 325 328 329 331 332 332 333 333 332 331 329 328 329 330 329 330 329 328 324 323 324 325 323 324 327 328
339 339 341 346 352 351 347 350 353 347 341 340 339 338 340 340 339 341 343 342 340 340 340 340 339 339 339 338 336 332 329 329 326 323 323 323 322 324 326 327 330 331 331 332 332 332 332 332 331 332 331 331 331 331 330 326 323 323 323 320 319 320 321
339 341 340 342 345 344 340 342 345 343 339 340 339 338 340 340 339 340 340 340 340 339 338 339 339 339 338 337 333 329 328 329 325 322 323 324 323 324 324 325 327 328 329 331 331 331 332 332 332 332 332 332 332 331 330 328 326 325 324 321 318 316 316
334 336 337 339 338 338 340 340 340 339 339 339 338 339 340 340 339 338 338 339 339 337 338 339 339 338 337 335 331 329 330 330 326 322 323 324 324 324 324 324 325 326 327 328 328 329 330 331 332 332 332 332 332 330 329 327 327 327 325 322 320 318 319
337 340 341 342 338 334 337 338 338 340 341 340 339 339 339 338 338 339 338 337 337 338 338 338 337 337 337 335 331 331 332 329 324 322 323 324 324 324 325 324 324 325 325 325 326 327 327 328 330 331 331 331 330 329 327 325 325 327 327 325 323 322 321
339 339 338 340 338 335 333 335 339 344 343 341 340 339 338 339 340 339 338 336 336 336 337 337 337 337 337 334 330 331 332 328 324 323 324 326 326 326 325 324 323 323 324 324 325 325 326 326 327 328 329 329 328 327 325 324 324 325 326 326 326 325 324
338 342 343 340 337 336 335 336 340 341 338 338 340 339 339 340 340 340 339 337 335 335 335 335 336 338 337 331 327 328 329 326 325 327 328 329 329 328 326 325 324 324 325 325 325 326 326 326 327 328 328 328 326 325 324 324 324 323 324 325 326 326 326
341 348 351 346 341 341 341 340 339 337 336 338 340 339 340 340 340 339 339 339 338 337 335 333 334 335 332 327 325 327 327 326 328 330 330 330 331 330 329 328 328 327 327 327 327 327 328 328 328 328 328 328 326 324 323 322 322 322 321 322 324 325 325
338 341 349 350 345 342 342 340 339 337 335 336 338 338 339 340 338 337 338 339 339 338 336 334 332 330 327 324 326 328 327 328 330 330 330 331 331 331 330 331 330 330 329 329 329 329 328 329 328 327 326 326 324 324 323 322 323 324 324 323 323 324 325
340 342 350 351 346 343 343 341 339 337 336 336 337 337 336 336 335 334 336 338 335 335 337 335 331 328 326 325 327 328 328 329 330 330 330 331 331 330 331 331 330 330 330 329 329 329 328 329 328 327 325 323 322 323 325 324 324 325 325 325 324 324 325
Wind_Speed
3 6 6 4 5 2 1 3 1 4 4 6 3 1 3 5 5 2 1 1 2 1 1 4 6 7 6 5 4 4 4 4 4 3 2 1 3 3 1 2 4 2 2 1 5 1 17 27 28 28 30 32 33 32 31 31 29 28 29 29 29 28 27
6 6 2 2 2 5 4 1 4 3 2 3 3 2 3 4 4 1 1 1 2 1 0 3 6 7 6 5 4 3 5 6 5 5 3 4 4 1 1 1 3 2 2 2 5 5 8 22 26 27 29 30 30 32 33 33 30 28 29 29 28 27 28
5 1 6 4 5 1 4 3 3 2 3 1 2 2 1 2 3 1 1 1 2 1 1 3 4 5 6 6 5 4 5 6 4 5 5 3 4 3 2 4 4 3 7 10 14 15 6 13 23 26 27 27 28 31 33 33 31 29 29 30 29 28 28
5 4 5 2 6 5 2 2 3 2 3 3 1 1 2 4 4 1 0 1 3 2 3 3 4 6 6 5 6 4 5 5 4 4 5 4 4 4 4 4 5 4 8 11 13 18 17 4 13 24 27 27 30 33 34 34 31 27 26 30 32 31 30
4 2 1 2 2 2 3 4 3 2 1 1 2 2 1 4 5 3 2 1 4 4 3 4 5 5 4 4 4 3 3 4 4 4 4 5 4 4 4 4 5 5 7 10 9 8 13 13 4 11 19 23 27 28 27 27 28 28 28 30 31 31 32
3 3 5 4 4 4 5 3 2 2 1 3 4 3 3 2 4 4 4 3 4 4 3 4 4 3 2 3 3 2 4 5 5 5 5 6 5 4 4 4 4 4 5 7 9 10 7 6 9 6 10 17 20 20 17 14 17 21 23 27 31 30 30
4 8 8 4 3 3 5 3 3 4 3 4 5 3 1 2 4 3 3 2 3 4 3 3 2 2 2 3 1 3 5 6 6 6 7 6 6 6 5 4 2 2 4 6 7 10 11 8 5 6 6 11 15 20 22 20 20 19 16 17 24 28 28
5 8 7 6 4 4 4 2 1 3 2 3 5 5 4 4 3 2 4 2 4 4 2 3 3 3 2 1 3 4 4 5 5 5 6 6 6 6 5 5 2 3 4 6 7 8 11 11 8 7 8 8 8 12 18 20 22 22 19 16 18 22 26
6 7 7 7 7 5 3 3 5 2 3 6 5 3 4 3 2 3 5 2 5 3 3 3 3 3 2 3 3 4 4 4 4 3 4 4 5 6 6 5 4 3 3 5 6 7 9 12 13 11 9 7 8 7 9 11 14 17 18 19 18 18 21
1 0 1 3 3 3 3 3 5 6 5 6 4 3 5 2 1 3 5 4 3 2 4 4 3 3 4 4 4 4 4 4 3 2 3 4 4 6 6 6 5 4 4 4 5 6 8 10 11 10 9 8 8 8 8 8 9 11 14 18 20 17 19
5 6 6 5 3 2 4 4 4 5 3 5 5 4 3 4 3 3 0 5 6 4 4 4 4 3 4 4 4 4 4 4 2 1 3 4 4 4 5 5 5 5 4 4 4 7 8 9 9 10 10 9 9 8 8 8 8 10 13 17 20 20 17
7 8 7 7 4 3 4 5 5 3 2 4 6 5 5 7 5 2 2 6 10 7 6 6 5 4 5 4 4 3 3 4 2 0 2 4 4 4 4 5 5 5 5 5 6 6 6 9 10 10 8 7 8 9 9 9 9 9 11 13 15 16 15
5 5 5 6 4 4 4 3 1 3 5 6 6 5 7 7 5 4 7 9 9 7 6 6 6 5 6 5 4 4 4 4 3 1 3 4 4 4 4 4 4 4 4 4 6 8 5 3 4 5 5 5 7 8 8 7 7 6 9 11 12 13 12
3 3 5 4 5 7 7 5 3 3 6 8 8 5 5 8 7 8 10 8 5 5 7 7 5 5 6 5 3 2 2 4 3 2 3 4 4 4 4 4 4 3 3 4 6 7 8 7 5 4 3 5 7 7 6 5 4 4 5 7 9 11 12
4 5 4 5 7 8 8 6 2 4 7 10 10 8 9 10 7 7 11 9 3 2 4 6 5 5 5 5 3 1 1 2 4 3 3 3 3 4 4 4 4 4 3 5 7 7 8 8 8 8 7 6 5 3 3 4 4 3 3 5 7 8 9
4 4 5 7 7 8 7 4 2 6 7 7 8 6 7 9 10 10 9 7 4 4 5 6 5 5 6 6 5 3 3 1 4 4 2 3 3 3 3 3 4 4 3 5 6 7 7 8 9 9 10 11 10 7 6 5 3 3 3 5 7 8 7
4 5 4 5 6 7 5 4 3 8 9 8 7 5 5 10 13 10 6 5 6 7 7 7 6 6 6 5 5 4 3 3 4 3 2 2 2 3 4 4 3 3 4 6 8 8 9 10 12 13 14 15 14 13 12 10 8 6 5 5 6 6 5
3 6 3 5 6 3 3 6 3 9 13 12 10 7 7 9 7 6 5 6 9 9 9 9 8 7 6 5 4 4 4 4 4 3 2 0 2 4 4 4 4 4 6 9 10 12 13 13 16 18 18 18 17 16 16 15 14 12 11 10 8 6 6
1 3 5 6 3 5 5 5 4 7 13 15 13 8 6 8 8 9 10 10 12 11 8 8 8 6 5 4 3 4 5 4 5 5 3 2 0 3 4 4 5 6 7 10 11 13 14 15 18 20 19 18 19 18 17 17 17 16 15 13 11 9 9
1 2 4 2 4 6 4 5 7 10 12 15 13 8 2 5 9 12 11 9 10 10 8 7 7 6 5 5 3 2 4 5 5 5 4 3 1 2 3 4 7 7 7 10 12 12 13 16 18 19 18 17 18 19 18 17 17 17 16 16 14 12 12
2 3 1 1 2 3 4 1 4 4 5 9 10 6 2 3 5 10 10 9 9 10 9 8 8 7 6 4 1 1 3 5 4 5 5 4 3 3 4 6 8 8 7 10 13 13 14 17 18 17 18 18 19 20 19 18 18 18 18 17 15 14 14
2 5 2 2 3 1 4 6 4 1 7 10 10 9 2 6 3 8 11 11 11 10 10 9 8 7 5 2 3 4 3 4 4 4 5 6 6 5 5 6 8 8 9 10 13 14 14 15 14 15 17 18 19 18 17 18 19 19 19 18 16 16 15
2 5 3 1 1 2 7 6 5 1 9 11 10 7 1 5 4 8 11 12 11 11 11 11 9 7 4 4 5 5 5 5 5 5 5 6 7 6 6 7 8 9 9 8 10 13 15 12 11 13 16 17 17 16 14 15 17 18 18 17 17 17 16
3 4 3 3 2 3 6 5 3 4 6 9 10 3 4 5 6 8 11 13 11 11 12 10 8 7 5 5 6 6 7 7 7 7 6 6 8 6 5 6 7 8 7 7 9 14 15 11 8 10 11 13 15 15 14 15 17 17 17 17 16 17 17
3 4 3 2 2 3 5 3 2 4 2 7 6 4 6 7 9 8 10 13 11 11 11 9 7 6 5 5 6 7 8 7 7 8 10 9 9 6 5 6 8 8 8 9 11 14 16 13 10 9 9 9 11 13 14 16 17 18 18 18 17 17 17
2 3 3 1 3 4 4 2 2 2 4 2 4 5 4 9 11 8 9 11 10 11 10 8 5 4 4 6 9 8 9 8 6 8 10 10 8 9 10 11 12 12 12 13 13 15 15 14 11 10 10 10 12 15 15 15 17 19 21 20 20 19 19
1 2 3 2 2 4 4 2 2 3 3 5 5 3 4 8 10 8 8 9 9 9 8 6 5 5 7 9 9 8 9 8 8 10 11 11 10 13 15 15 15 16 14 13 14 15 15 14 11 10 9 10 13 17 17 16 16 17 19 19 19 19 20
2 2 1 3 5 5 3 3 2 2 4 6 6 7 6 5 7 7 6 6 7 9 9 8 7 8 9 9 8 9 9 8 7 9 10 11 12 15 17 17 18 18 16 14 14 14 14 15 15 13 9 10 13 15 16 16 17 18 18 18 18 17 17
3 4 5 5 4 4 2 3 4 4 5 6 7 8 7 5 5 6 6 6 6 8 10 10 9 9 9 8 8 8 8 7 7 8 9 11 14 17 18 18 18 18 18 17 15 12 11 13 14 12 9 9 12 13 13 14 16 17 18 20 21 21 20
1 2 2 2 3 2 2 4 5 6 7 5 6 8 7 6 6 6 6 7 8 9 11 10 8 8 8 8 8 8 7 7 8 10 11 12 16 18 18 17 17 17 16 16 14 12 12 13 13 13 12 12 13 14 13 12 13 15 16 19 22 23 23
1 1 2 3 5 5 6 6 5 6 6 5 6 8 7 7 7 7 7 8 9 9 10 10 9 9 9 9 8 8 8 7 8 11 12 13 16 18 18 17 18 17 15 14 13 12 12 12 13 14 14 14 14 14 14 14 15 15 15 17 19 21 22
2 4 5 2 3 4 5 7 6 5 6 7 7 8 8 7 8 7 8 9 10 8 9 10 11 10 8 9 9 8 7 7 9 12 13 14 16 17 18 19 19 18 17 16 15 15 14 13 12 12 12 13 13 13 14 16 17 19 18 17 16 16 17
0 3 1 4 3 2 4 4 5 6 7 8 8 8 9 9 8 8 8 9 10 10 10 10 11 10 8 8 9 9 7 7 10 13 14 15 17 18 19 19 18 18 17 17 17 16 15 13 13 13 13 13 13 14 15 16 17 19 21 20 18 15 13
0 3 3 4 5 3 5 5 6 8 9 10 10 9 9 10 10 10 9 8 9 11 13 12 11 9 8 9 11 9 8 9 12 15 16 17 18 19 18 17 16 16 16 16 16 16 14 13 13 14 14 14 14 15 16 16 15 17 18 19 20 18 15
5 7 7 5 6 5 5 6 7 8 9 11 12 11 10 11 10 10 11 10 8 9 12 15 14 9 8 13 14 9 8 13 17 18 19 20 19 19 20 19 17 16 15 14 15 14 13 12 13 13 13 13 13 13 14 14 15 16 15 16 17 17 17
3 5 6 7 6 5 6 7 7 8 9 11 12 11 11 10 10 11 12 11 11 10 9 12 15 15 14 17 17 12 11 16 20 20 21 22 21 20 20 19 18 17 16 14 14 13 12 12 12 12 12 12 11 12 13 14 15 15 14 13 13 14 15
3 4 6 6 6 6 6 5 6 7 8 10 10 10 11 12 12 13 11 9 12 15 11 8 13 20 20 18 18 17 16 18 21 22 21 20 20 19 19 19 18 17 16 14 13 12 12 12 12 11 11 10 10 11 12 12 12 12 11 10 10 11 11
Wind_Direction
190 195 209 156 118 141 301 29 79 240 194 140 137 12 59 81 89 12 8 127 301 340 294 325 17 23 0 1 3 5 359 1 41 68 94 69 100 118 291 212 155 135 160 81 11 193 189 192 197 192 181 178 179 177 178 182 185 188 192 195 198 202 204
238 210 143 66 138 141 110 4 233 242 38 90 111 86 32 53 87 346 344 152 297 351 158 334 3 357 338 328 322 343 352 357 17 18 17 9 356 347 312 35 116 112 82 61 1 6 197 198 194 184 179 180 179 177 179 182 184 187 192 195 197 200 202
263 306 60 7 311 99 128 187 217 88 60 2 14 64 113 93 95 57 350 326 299 227 231 306 339 317 307 314 321 355 9 1 5 359 1 2 354 4 21 40 53 49 39 23 356 350 335 196 185 175 174 178 177 176 181 185 186 188 191 193 195 198 201
329 6 46 357 308 333 47 29 355 50 137 164 124 68 135 123 118 141 137 301 281 222 212 239 255 274 293 315 328 355 13 358 344 344 355 357 8 26 30 44 57 62 65 53 14 353 353 360 171 169 169 174 177 178 182 186 185 185 190 193 194 197 199
13 26 305 218 251 338 49 34 1 349 358 105 99 47 48 113 128 150 147 186 265 252 197 203 234 265 299 313 316 343 14 14 4 360 9 5 8 25 16 32 56 53 66 82 78 41 8 5 45 156 164 167 171 175 180 184 183 184 190 194 198 200 199
357 271 262 246 218 179 130 127 166 164 118 86 80 26 337 75 114 149 153 165 255 258 191 196 230 257 300 304 300 360 25 27 25 24 28 17 10 14 7 24 61 62 60 78 96 105 97 38 35 71 143 154 156 160 165 176 186 192 196 198 201 205 203
276 274 284 294 251 175 124 127 144 136 121 105 114 151 215 70 78 106 107 106 262 252 200 183 198 227 261 290 337 64 43 32 36 37 36 29 17 10 360 14 65 133 110 102 103 103 114 122 85 63 107 139 150 163 170 178 189 202 213 212 209 209 207
306 304 315 345 7 44 56 11 31 123 145 129 134 156 149 117 127 118 80 67 269 262 195 155 174 212 239 13 54 69 61 42 41 37 32 28 18 12 6 18 65 160 132 101 94 88 98 110 95 55 48 67 102 154 172 178 185 196 206 214 221 220 213
347 344 347 348 350 19 40 308 319 5 104 102 98 101 83 83 181 147 115 160 259 255 152 152 191 200 128 90 81 76 73 56 42 30 29 26 18 18 15 19 51 99 99 84 86 80 80 87 85 75 69 73 83 115 159 182 194 197 194 196 210 228 229
89 314 300 290 292 332 334 304 341 16 64 98 109 94 79 76 203 111 120 174 236 236 157 169 203 179 125 111 111 100 92 79 53 10 17 32 27 22 17 18 37 66 78 87 107 104 85 84 98 115 134 150 148 137 146 171 197 204 196 193 197 216 241
174 196 221 236 234 293 307 316 358 9 44 108 106 84 106 152 130 56 19 162 150 167 182 183 205 184 135 118 111 105 105 101 85 10 15 36 38 26 23 27 26 34 49 57 89 117 122 123 142 167 166 153 149 145 143 152 175 196 201 197 192 197 227
197 203 225 256 269 257 264 301 330 349 44 89 91 96 153 153 108 33 246 147 143 176 191 181 198 180 133 130 134 133 131 128 130 82 42 46 43 33 39 48 38 28 29 27 41 74 131 160 181 201 194 155 143 142 144 154 168 191 200 194 186 186 208
220 215 240 270 286 270 264 282 309 75 75 93 108 126 160 150 120 168 184 154 152 178 181 182 195 168 139 148 161 160 146 129 121 81 55 52 42 32 35 42 39 37 35 21 27 37 53 118 177 214 209 195 193 181 170 165 164 182 195 185 171 166 180
274 270 276 315 349 324 297 266 210 118 90 104 110 113 126 114 115 146 150 140 143 169 175 179 179 148 137 141 142 147 140 124 114 72 43 43 41 33 27 23 15 22 39 29 26 30 29 38 54 73 127 185 215 217 208 202 182 171 176 169 164 159 158
311 304 333 3 1 336 309 281 235 98 95 99 98 103 105 91 95 125 124 119 127 195 169 146 136 133 127 125 136 168 219 134 104 71 35 35 44 34 15 3 356 355 24 36 29 25 24 36 58 74 96 130 161 175 178 189 194 185 153 130 139 154 154
301 309 9 7 355 356 348 324 60 88 101 115 114 126 135 126 127 125 118 127 165 193 151 124 130 140 129 136 153 174 233 183 104 93 53 30 36 25 359 349 354 353 10 33 26 21 29 47 63 77 87 99 109 112 110 123 149 180 174 131 119 127 136
277 296 8 23 12 15 354 282 156 106 102 113 116 107 126 137 138 140 155 177 170 160 146 137 147 151 144 158 169 175 204 180 121 122 117 39 6 357 350 352 9 13 17 25 27 31 47 63 71 78 84 86 87 89 90 95 106 116 121 121 124 130 137
270 293 350 46 31 11 263 265 216 129 119 118 119 116 130 143 145 140 142 150 150 152 155 155 159 163 162 169 178 173 166 148 130 134 145 209 336 355 1 5 13 23 34 34 34 40 51 66 75 78 81 82 83 85 87 88 91 93 96 100 108 119 129
189 311 26 51 8 251 252 321 12 106 113 111 103 93 118 137 130 120 125 142 154 155 156 155 151 152 150 140 147 161 154 146 139 135 148 189 350 4 7 18 11 14 39 45 41 45 52 64 76 79 80 83 86 87 86 86 86 87 90 93 96 101 106
126 33 60 106 238 258 301 23 70 92 95 100 94 68 50 140 132 131 137 149 150 140 138 141 135 134 126 100 86 143 153 153 146 141 159 180 147 18 16 35 24 22 48 63 60 60 64 72 79 81 82 86 88 88 88 86 85 85 86 83 82 84 85
122 114 141 237 275 313 327 346 152 138 127 131 121 107 268 248 152 138 135 136 138 134 134 136 127 117 103 81 13 259 154 146 146 145 147 138 110 69 50 44 33 37 70 86 86 86 83 79 80 83 84 86 85 85 86 84 83 83 80 75 72 73 75
96 102 82 360 33 337 262 253 271 271 137 135 118 114 185 276 219 147 138 140 144 140 137 137 129 117 111 135 234 238 184 147 129 126 121 109 99 87 70 52 45 60 83 88 89 95 92 84 81 84 87 88 86 84 85 85 84 83 80 75 72 71 74
112 105 114 157 148 237 237 243 299 5 130 118 89 87 205 259 215 154 141 145 151 149 148 149 141 134 152 200 225 218 187 161 140 138 131 109 104 97 76 58 59 77 89 83 80 85 85 82 84 89 90 92 92 90 89 91 91 89 87 84 80 77 79
148 117 130 196 199 233 229 222 245 214 149 99 75 71 247 224 185 165 153 153 160 158 154 154 156 163 182 201 205 189 171 163 156 158 158 138 127 117 79 62 74 85 88 82 80 82 81 79 80 88 92 94 95 94 93 93 92 92 94 94 92 89 88
141 119 132 231 258 249 237 236 224 200 127 70 87 205 230 181 164 174 162 157 163 162 159 164 178 196 203 178 164 160 155 157 164 169 167 157 144 131 102 91 97 96 90 91 94 93 94 94 90 90 95 97 99 100 97 93 92 94 98 100 99 96 93
152 125 131 201 271 247 221 246 328 88 102 123 207 221 190 150 157 174 165 161 167 166 166 171 180 198 183 145 140 149 154 158 168 171 169 165 155 136 116 107 107 104 98 102 105 101 100 100 95 91 90 89 93 97 98 100 100 98 98 100 101 100 97
131 80 93 143 231 241 217 206 354 40 128 192 205 152 119 141 155 161 161 163 167 162 160 162 152 144 141 136 136 145 152 159 169 170 166 162 153 140 128 121 120 119 113 113 115 112 111 111 109 106 99 90 88 90 93 104 109 104 100 98 97 97 95
124 99 174 197 209 240 232 148 169 214 186 178 158 132 131 146 149 152 157 161 164 155 147 147 144 139 140 140 137 140 149 158 165 166 165 159 147 141 137 134 132 131 128 123 118 118 124 126 123 122 118 103 91 85 88 100 106 105 100 95 92 90 88
171 170 207 216 210 238 244 133 155 170 149 146 143 134 139 151 152 155 155 153 157 149 141 143 146 144 146 146 140 141 149 156 153 151 155 154 149 147 145 141 139 136 132 126 117 110 114 123 127 132 133 111 89 81 87 101 106 103 99 95 93 91 86
205 144 193 195 158 176 171 132 140 143 134 137 140 131 138 158 159 156 155 154 155 149 142 142 147 151 150 145 144 147 147 145 145 142 139 139 142 145 145 142 140 137 131 129 126 113 104 105 111 119 119 104 86 79 87 102 107 105 101 97 94 92 89
119 117 254 195 161 171 163 142 144 147 136 143 152 147 152 162 157 155 157 151 149 150 147 144 149 155 151 142 144 150 145 142 143 140 135 133 135 139 141 142 142 141 136 134 132 124 113 107 108 110 107 99 91 87 90 99 104 105 104 102 99 97 94
160 226 247 211 170 206 186 156 157 157 146 154 162 154 149 147 145 148 151 147 147 151 150 148 151 155 150 146 149 149 143 147 150 146 143 140 134 133 135 138 139 137 132 126 123 119 116 113 114 112 105 98 94 91 93 100 104 102 102 106 110 108 101
314 266 236 99 97 261 248 186 161 156 154 154 150 141 137 134 132 138 146 150 153 152 151 151 153 154 150 148 150 148 145 151 154 152 151 146 139 136 135 135 136 132 127 123 120 118 118 116 114 110 104 98 92 92 100 107 106 101 98 100 104 110 111
236 235 200 144 136 191 243 217 163 155 152 141 135 137 140 139 142 145 145 146 148 150 154 156 154 152 153 154 152 151 153 155 152 150 148 144 141 140 138 136 137 134 130 127 123 121 121 120 114 106 101 98 94 95 100 104 104 101 99 96 95 98 101
211 218 208 181 152 172 222 212 169 158 149 139 141 151 152 151 154 151 145 143 144 148 159 162 157 150 151 155 153 149 153 154 149 146 146 144 143 144 143 141 140 139 137 135 131 130 129 125 116 106 100 98 97 98 100 100 98 95 92 92 93 93 93
216 216 190 172 154 161 190 190 176 166 151 143 150 159 158 157 158 155 152 153 151 151 162 166 160 155 154 156 155 151 151 152 148 146 148 147 147 148 150 148 148 148 149 147 143 141 140 134 124 113 104 98 96 98 101 99 93 84 76 78 89 95 95
184 193 183 170 154 150 155 158 163 162 148 142 150 159 159 159 159 158 157 155 152 154 157 159 159 158 158 157 155 152 151 153 152 151 150 149 150 152 153 153 155 155 156 157 154 151 149 144 137 126 110 97 94 97 97 92 84 72 63 70 91 101 99